SL-8 DEB, 21955

Orbit data source: Space-Track

SL-8 DEB, 21955 is space debris in LEO originally from a launch on Tue, 12 Feb 1991 UTC launched from the Plesetsk Missile And Space Complex (PKMTR). Debris objects in space refer to the collection of defunct objects orbiting the Earth. Examples of debris include non-operational satellites, rocket bodies, and fragments generated from explosions, collisions, or faulty payload assembly.

Loading next visibility...
Identifier
21955, 1991-009CF
Orbit
LEO
Country
Flag of CISCIS
Related business
Manufacturer
Unknown
Mission
Spacecraft
Bus & Motor
Unknown
Mass
Unknown
Launch date (UTC)
1991-02-12 (35 years ago)
Launch vehicle
Unknown
Launch site
Plesetsk Missile And Space Complex (PKMTR)
Object type
Payload
Rocket body
Debris
Shape & HBR
Unknown shape, 0.1 m
Radar Cross Section
Medium (>0.1 m² and <1 m²)

Expand to show TLE details & history
Last TLE update: 3 days ago

TLE from 3 days ago
0 SL-8 DEB
1 21955U 91009CF  26171.18739199  .00000240  00000-0  27133-2 0  9999
2 21955  74.2995  86.4114 0161365  41.5224 108.6544 12.08346522555651
Epoch: 2026-06-20T04:29Z
TLE epoch observation values (Epoch: 2026-06-20T04:29:50.667Z)
Latitude
26.9869°
Longitude
-77.64558°
Altitude
1,689.758 km
Speed
7.014 km/s
True Right ascension
17h 12m 53s
True Declination
26° 51' 51"
Sunlit
Object was in full shadow at epoch
Visualization orbit readout
Latitude
Unknown
Longitude
Unknown
Altitude
Unknown
Speed
Unknown
Apparent Right ascension
Unknown
Apparent Declination
Unknown
Sunlit
N/A
Visualization observer readout
Local Sidereal Time
03:47:34
Azimuth
Unknown
Elevation
Unknown
Doppler factor
Unknown
Orbital elements
Apogee altitude
1,770.979 km
Perigee altitude
1,512.159 km
Semi-major axis
8,019.706 km
Eccentricity
0.01614
Inclination
74.2995°
RAAN
86.4114°
Arg. of periapsis
41.5224°
True anomaly
110.39486°
Mean anomaly
108.6544°
Eccentric anomaly
109.52578°
Mean motion
3.02208 °/min
Orbital period
119.12 mins
BSTAR
0.0027133
Loading maneuver chart data...
Computing Atmospheric mass density...
Loading historical data...
Loading historical data...
Loading historical data...
Loading historical data...
Loading historical data...
Loading historical data...
Loading historical data...

Documentation

Showing up to 5 results
|